Temp
61 61 61 61 61 61 61 61 61 61 62 62 62 62 63 63 63 63 60 63 65 66 66 69 73 73 74 71 73 70 56 56 60 64 62 69 69 71 72 71 71 72 69 69 69
61 61 61 61 61 61 61 61 61 61 61 62 62 62 62 62 59 58 65 66 66 66 64 63 66 71 67 68 69 63 56 59 67 68 66 68 68 70 68 70 68 67 67 68 68
60 61 61 60 61 60 60 60 60 61 61 61 62 62 62 62 55 58 64 65 66 66 63 61 63 68 63 67 66 63 58 67 67 66 70 68 68 71 68 65 70 66 63 64 66
61 60 60 60 60 60 60 60 60 60 60 61 61 61 61 61 45 60 64 64 65 66 62 59 59 60 59 59 67 59 67 68 67 67 68 66 70 67 67 66 73 73 67 65 64
60 59 60 60 60 60 60 60 60 60 60 60 61 61 60 54 55 64 62 63 65 64 61 58 55 58 56 62 64 61 64 68 68 66 66 69 66 65 64 72 74 72 65 64 66
60 59 59 59 59 59 59 59 60 59 60 60 61 60 56 46 66 66 63 62 61 62 61 61 57 58 59 61 61 66 64 66 67 67 67 64 65 65 67 71 71 69 65 65 67
59 59 58 58 59 59 59 59 59 59 59 60 60 60 54 54 68 67 63 59 60 58 57 62 62 56 57 56 62 65 58 63 65 66 64 65 59 62 68 71 69 69 67 67 69
59 58 58 58 58 58 59 59 59 59 59 60 60 58 49 68 69 65 65 59 60 59 58 61 60 57 55 56 55 54 54 50 61 64 64 62 52 66 71 68 68 68 67 67 68
58 58 58 58 58 58 58 58 58 59 59 60 57 55 49 63 60 66 65 59 58 58 58 60 57 54 53 49 46 49 44 46 53 63 63 59 54 67 69 68 65 68 67 67 66
58 57 58 58 58 58 58 58 59 58 60 61 60 49 56 54 62 63 66 63 56 55 53 53 52 49 49 47 39 43 45 47 48 55 60 56 56 64 67 66 64 66 67 66 67
58 57 57 57 57 58 56 55 49 47 53 49 49 50 55 62 63 58 63 59 57 53 46 50 46 44 48 51 51 50 49 47 49 50 49 55 56 61 65 64 62 64 65 65 67
57 57 57 57 57 57 55 50 50 50 41 54 54 54 57 58 51 57 61 50 50 45 49 45 41 48 51 52 49 48 46 45 46 48 47 49 54 60 64 63 64 64 65 66 68
57 57 57 57 57 54 54 54 59 57 41 49 52 51 54 56 50 53 55 54 48 46 46 41 44 50 49 47 46 46 46 44 45 45 47 46 46 53 61 62 64 62 63 66 62
57 56 56 57 51 56 52 57 58 56 33 39 44 50 54 55 47 59 59 55 49 45 48 45 49 46 45 44 46 42 50 47 43 43 38 47 36 48 57 58 58 59 59 59 58
56 56 56 56 53 51 53 58 57 50 17 41 44 56 54 48 50 51 58 54 45 47 47 44 46 44 42 44 47 42 50 47 45 42 41 41 38 45 57 55 53 56 58 55 54
56 56 56 54 55 55 57 57 51 29 16 31 44 43 43 47 49 51 50 54 51 46 48 47 52 51 48 50 48 49 45 44 43 40 33 41 40 42 48 53 53 52 53 53 51
55 55 55 58 47 57 56 49 29 19 36 29 33 41 42 41 44 42 43 41 37 31 33 44 45 50 51 45 48 47 41 32 30 30 30 42 40 43 51 55 52 49 49 50 50
54 55 54 55 56 55 50 35 19 23 25 37 36 37 34 42 42 40 37 37 41 39 35 31 28 44 50 47 43 44 43 34 27 27 30 36 34 42 49 54 54 51 49 48 46
55 54 52 51 55 54 40 26 27 26 29 31 34 30 28 35 39 38 35 36 41 40 34 33 34 46 46 49 47 42 37 43 35 30 29 36 40 46 48 47 48 47 47 45 44
53 51 47 52 53 49 33 30 31 36 36 36 26 30 25 30 33 34 33 40 40 45 42 40 32 40 43 46 47 45 45 35 34 24 24 32 34 39 41 43 45 44 45 44 44
51 41 47 51 50 37 30 31 32 39 38 34 30 27 29 31 30 32 31 38 44 45 44 41 37 34 41 38 38 40 38 39 38 34 27 27 34 43 46 45 44 45 46 44 43
47 32 48 50 35 31 30 32 37 37 37 35 34 33 27 32 31 29 31 37 45 45 38 41 37 31 33 38 40 40 40 42 33 31 33 32 34 46 47 48 47 46 46 45 44
41 40 48 46 30 30 33 33 37 36 34 34 33 36 35 31 29 32 34 43 42 42 38 41 33 28 29 34 37 36 38 41 42 37 31 30 34 45 46 47 48 44 43 43 42
43 31 35 39 37 31 30 31 31 41 37 36 34 36 33 30 33 31 35 40 41 40 44 43 36 32 26 31 35 32 36 39 38 30 32 34 37 40 42 45 46 41 42 41 40
41 33 32 31 32 34 33 32 31 28 37 38 34 34 32 27 31 31 34 37 39 40 41 39 32 32 35 38 41 38 37 37 36 39 34 39 40 45 44 45 46 43 43 40 39
37 34 30 29 32 34 31 28 30 29 31 32 30 34 34 29 29 29 32 34 34 38 37 38 32 31 28 36 37 34 39 39 38 40 39 40 40 46 48 47 44 42 42 40 40
43 41 38 35 31 30 32 30 32 34 33 35 33 32 31 31 33 33 33 34 36 35 33 34 30 27 23 30 30 21 33 38 40 40 41 36 44 45 43 46 44 43 43 42 42
MSLP
1021.30 1021.10 1020.99 1020.96 1020.91 1020.81 1020.67 1020.63 1020.46 1020.31 1020.04 1019.77 1019.44 1019.10 1018.60 1018.33 1017.99 1017.60 1017.24 1017.14 1016.90 1016.75 1016.41 1015.68 1014.99 1014.79 1014.66 1014.20 1014.00 1013.51 1013.23 1012.00 1011.73 1011.47 1011.50 1011.30 1010.92 1011.11 1011.46 1011.89 1012.49 1013.37 1014.06 1014.80 1016.67
1021.33 1021.26 1021.09 1020.95 1020.92 1020.83 1020.75 1020.60 1020.48 1020.25 1020.09 1019.82 1019.54 1019.22 1018.77 1018.30 1018.19 1017.49 1017.04 1016.77 1016.74 1016.68 1016.43 1016.08 1015.17 1014.92 1014.63 1014.10 1013.99 1013.64 1012.95 1012.16 1012.10 1011.61 1011.48 1011.65 1011.33 1011.20 1011.59 1012.06 1013.02 1014.26 1015.53 1016.34 1017.13
1021.26 1021.22 1021.17 1021.00 1020.94 1020.88 1020.73 1020.67 1020.50 1020.32 1020.06 1019.81 1019.49 1019.27 1018.98 1018.54 1018.18 1016.76 1016.68 1016.73 1016.56 1016.51 1016.50 1016.05 1016.03 1015.45 1014.99 1014.41 1014.08 1013.42 1012.98 1012.29 1012.38 1012.37 1012.16 1012.01 1011.69 1011.68 1011.58 1012.07 1012.52 1013.75 1015.57 1016.81 1017.36
1021.06 1021.16 1021.10 1021.06 1021.00 1020.89 1020.79 1020.68 1020.55 1020.35 1020.10 1019.83 1019.57 1019.22 1018.81 1018.47 1017.67 1016.72 1016.43 1016.64 1016.69 1016.60 1016.78 1016.69 1016.26 1015.61 1015.12 1014.50 1013.80 1013.61 1012.98 1012.66 1012.70 1013.00 1012.90 1012.37 1012.25 1011.88 1011.92 1012.62 1012.72 1013.26 1015.07 1016.44 1017.30
1021.02 1021.06 1021.02 1020.97 1020.93 1020.91 1020.78 1020.63 1020.47 1020.29 1020.08 1019.81 1019.52 1019.28 1018.76 1017.74 1016.46 1016.35 1016.40 1016.51 1016.46 1016.59 1016.41 1016.44 1016.18 1015.40 1014.94 1014.24 1013.99 1013.65 1013.38 1013.02 1013.04 1013.25 1013.02 1012.86 1012.47 1012.39 1012.23 1012.46 1013.07 1014.00 1015.49 1016.47 1016.93
1020.97 1020.96 1020.97 1020.90 1020.80 1020.76 1020.67 1020.60 1020.42 1020.21 1019.89 1019.70 1019.44 1019.24 1018.66 1017.13 1015.91 1016.10 1016.37 1016.53 1016.44 1016.34 1016.26 1016.26 1016.05 1015.44 1015.12 1014.44 1013.79 1013.39 1013.44 1013.15 1013.06 1013.37 1013.06 1013.11 1012.64 1012.53 1012.57 1012.72 1013.45 1014.47 1015.46 1016.30 1016.47
1020.85 1020.76 1020.83 1020.74 1020.71 1020.61 1020.51 1020.49 1020.34 1020.09 1019.87 1019.50 1019.31 1019.07 1017.74 1016.24 1015.81 1015.84 1016.12 1016.33 1016.17 1016.39 1016.50 1016.03 1015.91 1015.84 1015.31 1015.02 1014.19 1013.52 1013.69 1013.57 1013.29 1013.25 1013.33 1013.34 1013.10 1012.65 1012.63 1012.73 1013.51 1014.26 1015.00 1015.84 1016.10
1020.63 1020.67 1020.70 1020.61 1020.57 1020.53 1020.41 1020.32 1020.12 1019.90 1019.61 1019.38 1019.07 1018.95 1017.07 1015.38 1015.42 1015.69 1015.89 1016.31 1016.41 1016.23 1016.76 1016.24 1016.07 1015.92 1015.62 1015.22 1014.96 1014.49 1014.46 1014.00 1013.37 1013.29 1013.54 1013.81 1013.11 1012.44 1012.58 1012.76 1013.16 1013.86 1014.57 1015.49 1016.07
1020.40 1020.55 1020.56 1020.47 1020.51 1020.51 1020.40 1020.23 1019.92 1019.58 1019.27 1019.16 1018.79 1018.30 1016.43 1015.80 1015.60 1015.25 1015.62 1015.75 1016.17 1016.12 1016.69 1016.42 1016.21 1015.46 1015.70 1015.29 1015.42 1014.88 1014.38 1014.39 1013.80 1013.43 1013.80 1014.09 1013.49 1012.85 1012.58 1012.80 1013.03 1013.43 1014.17 1014.99 1015.70
1020.16 1020.39 1020.41 1020.36 1020.53 1020.51 1020.33 1020.10 1019.55 1019.38 1018.68 1018.54 1018.18 1018.19 1016.23 1015.40 1015.09 1015.34 1015.50 1015.64 1015.81 1015.64 1016.66 1016.13 1015.50 1014.91 1014.71 1015.05 1014.42 1013.92 1014.60 1014.82 1014.75 1014.59 1014.24 1014.26 1013.84 1013.04 1012.75 1012.85 1013.17 1013.16 1013.82 1014.73 1015.36
1020.00 1020.25 1020.34 1020.44 1020.56 1020.52 1020.44 1020.03 1019.73 1019.32 1018.64 1017.69 1017.53 1016.91 1016.27 1015.61 1015.69 1015.40 1015.33 1015.40 1015.26 1015.32 1015.80 1015.46 1015.30 1014.56 1014.32 1014.16 1014.43 1014.44 1014.79 1014.97 1015.31 1016.03 1015.69 1014.99 1014.25 1013.46 1013.01 1012.95 1013.31 1013.37 1013.74 1014.58 1015.26
1019.91 1020.27 1020.44 1020.58 1020.62 1020.63 1020.59 1019.88 1019.79 1020.22 1018.99 1017.53 1017.33 1016.94 1016.47 1016.28 1015.50 1015.02 1015.45 1015.66 1015.07 1015.04 1015.61 1015.98 1015.18 1014.82 1014.79 1014.31 1014.40 1014.49 1014.86 1015.70 1016.31 1016.42 1017.30 1016.43 1014.65 1013.77 1013.21 1013.00 1013.18 1013.64 1013.68 1014.59 1015.36
1019.99 1020.39 1020.49 1020.68 1020.67 1020.75 1020.24 1019.85 1019.84 1019.95 1019.30 1017.30 1017.14 1016.77 1016.33 1016.34 1015.48 1014.74 1015.29 1015.07 1015.13 1015.05 1014.97 1015.17 1015.23 1014.77 1014.44 1014.65 1014.58 1014.91 1014.97 1015.79 1016.62 1017.56 1017.74 1017.23 1015.76 1014.34 1013.45 1013.20 1013.45 1014.10 1014.44 1014.80 1016.05
1020.15 1020.45 1020.49 1020.77 1021.14 1020.30 1020.12 1020.20 1020.09 1020.08 1019.46 1017.78 1017.22 1016.57 1016.38 1016.21 1015.58 1014.98 1014.96 1014.87 1014.61 1014.18 1014.29 1014.82 1015.10 1014.97 1014.65 1014.42 1014.75 1014.89 1014.98 1015.84 1016.72 1017.47 1017.75 1017.20 1015.95 1014.35 1013.83 1013.73 1014.16 1014.92 1015.52 1016.30 1017.58
1020.22 1020.43 1020.54 1020.84 1020.64 1020.40 1020.59 1020.34 1020.03 1020.20 1019.77 1018.25 1017.28 1017.00 1016.43 1016.38 1015.99 1015.33 1015.19 1014.96 1014.91 1014.51 1014.46 1014.46 1014.67 1015.48 1015.19 1014.98 1015.44 1015.53 1015.43 1016.13 1016.84 1017.38 1017.62 1017.29 1016.71 1014.15 1013.52 1014.06 1014.84 1015.72 1016.67 1018.04 1019.22
1020.26 1020.56 1020.89 1020.97 1020.53 1020.77 1020.45 1020.31 1020.47 1020.78 1019.84 1018.84 1017.89 1017.21 1016.98 1016.64 1016.04 1015.88 1015.49 1015.53 1015.56 1015.31 1015.28 1015.14 1014.80 1014.61 1015.18 1015.12 1015.80 1015.75 1015.98 1016.57 1017.27 1017.88 1018.01 1017.18 1016.75 1015.00 1014.28 1014.10 1015.18 1016.59 1017.96 1019.12 1020.53
1020.43 1020.86 1021.14 1020.77 1021.05 1020.76 1020.50 1020.61 1021.37 1021.20 1020.43 1020.23 1019.42 1018.28 1017.49 1017.01 1016.56 1016.54 1016.15 1016.04 1015.80 1015.87 1015.50 1015.41 1015.35 1015.18 1014.75 1015.41 1016.05 1016.09 1016.38 1017.07 1018.13 1018.31 1017.84 1017.21 1017.02 1015.36 1014.92 1014.79 1015.96 1017.33 1018.85 1020.34 1021.81
1020.74 1021.05 1021.44 1021.43 1021.20 1020.83 1020.81 1021.45 1021.97 1021.57 1021.46 1021.06 1020.40 1019.60 1018.52 1017.65 1017.23 1017.36 1017.23 1016.63 1016.54 1016.43 1015.98 1015.84 1015.77 1015.22 1014.76 1015.07 1015.72 1015.94 1016.41 1017.13 1017.83 1018.22 1018.12 1017.70 1016.96 1015.98 1016.03 1015.79 1016.59 1018.37 1019.92 1021.30 1022.74
1020.85 1021.12 1021.29 1021.83 1021.31 1020.75 1021.58 1022.29 1022.32 1022.44 1022.34 1021.86 1021.01 1020.46 1019.61 1018.85 1018.27 1018.11 1018.06 1017.39 1017.03 1017.20 1016.99 1016.23 1016.17 1015.93 1015.70 1015.49 1016.17 1016.32 1016.51 1017.51 1017.68 1018.31 1018.28 1017.76 1017.12 1016.81 1016.68 1017.36 1018.09 1019.40 1020.89 1022.15 1023.23
1020.87 1021.13 1021.92 1022.03 1021.59 1021.27 1022.61 1022.64 1022.72 1022.64 1022.47 1022.17 1021.75 1021.17 1020.28 1019.86 1019.23 1018.79 1018.67 1018.00 1017.34 1017.06 1017.90 1016.99 1017.05 1017.27 1016.82 1016.73 1016.92 1016.36 1016.90 1017.62 1017.95 1018.70 1018.56 1017.87 1017.14 1016.56 1017.23 1017.87 1019.09 1020.27 1021.34 1022.75 1023.81
1021.02 1021.44 1022.41 1022.17 1021.86 1022.25 1023.01 1023.10 1022.92 1022.74 1022.88 1022.48 1022.15 1021.66 1021.03 1020.42 1020.12 1019.65 1019.12 1018.30 1017.70 1017.08 1017.51 1017.53 1017.22 1018.26 1017.63 1017.86 1017.38 1017.40 1017.17 1017.61 1017.95 1018.18 1018.03 1017.68 1017.28 1016.81 1016.56 1017.54 1019.07 1020.51 1021.70 1022.96 1024.21
1021.30 1022.37 1022.54 1022.39 1022.91 1023.38 1023.39 1023.50 1023.26 1022.75 1022.89 1022.71 1022.56 1021.93 1021.63 1021.32 1020.78 1020.32 1019.52 1018.88 1018.18 1017.63 1017.57 1017.98 1017.68 1018.15 1018.71 1019.00 1018.75 1017.94 1017.53 1017.61 1017.77 1018.36 1018.33 1017.84 1017.70 1017.26 1016.93 1017.68 1019.01 1020.76 1022.10 1023.20 1024.46
1021.62 1022.27 1022.64 1022.69 1023.13 1023.42 1023.62 1023.49 1023.05 1022.73 1022.77 1022.69 1022.40 1022.06 1022.06 1021.88 1021.44 1020.58 1019.70 1019.34 1019.05 1018.55 1018.27 1018.23 1018.44 1018.74 1019.29 1019.23 1018.98 1018.59 1018.13 1017.83 1017.80 1018.09 1018.30 1017.83 1017.89 1017.70 1017.64 1018.33 1019.34 1020.78 1022.44 1023.63 1024.55
1021.65 1022.75 1023.47 1023.21 1023.54 1023.55 1023.53 1023.30 1022.94 1022.50 1022.52 1022.76 1022.64 1022.36 1022.29 1022.05 1021.68 1021.04 1020.17 1019.80 1019.62 1019.44 1019.01 1018.85 1018.73 1018.58 1018.62 1018.14 1018.00 1018.53 1018.26 1018.10 1018.22 1018.17 1017.85 1017.55 1017.68 1017.73 1018.02 1018.31 1019.51 1021.01 1022.17 1023.21 1024.47
1021.95 1023.11 1024.02 1024.14 1023.80 1023.49 1023.51 1023.20 1023.02 1022.72 1022.66 1022.78 1022.59 1022.56 1022.52 1022.23 1021.82 1021.56 1021.08 1020.55 1020.30 1020.02 1019.47 1019.43 1019.27 1018.98 1018.74 1018.27 1017.87 1017.83 1017.85 1017.88 1018.00 1018.02 1018.05 1017.59 1016.98 1016.48 1016.84 1017.67 1018.90 1020.31 1021.59 1022.90 1024.03
1022.08 1023.00 1024.20 1024.07 1023.80 1023.32 1023.53 1023.03 1022.89 1023.01 1023.02 1022.85 1023.02 1022.81 1022.85 1022.78 1022.81 1022.32 1021.93 1021.41 1020.88 1020.53 1020.14 1020.05 1019.67 1019.23 1019.10 1018.66 1018.27 1017.86 1017.58 1017.78 1017.84 1017.77 1017.60 1016.87 1016.39 1015.79 1016.22 1017.27 1018.52 1019.74 1021.07 1022.40 1023.52
1021.93 1022.51 1022.89 1023.54 1023.67 1023.40 1022.92 1022.83 1022.72 1022.83 1023.20 1023.29 1023.48 1023.34 1023.14 1023.28 1023.31 1023.27 1023.00 1022.37 1021.70 1021.07 1020.72 1020.47 1020.31 1019.94 1019.96 1019.50 1018.90 1018.48 1017.29 1017.21 1017.09 1016.66 1016.55 1016.77 1015.56 1015.91 1016.39 1017.00 1017.96 1019.23 1020.51 1021.86 1022.90
Wind_Speed
7 7 7 9 9 9 10 10 10 10 11 12 12 13 11 13 14 4 6 3 3 7 10 8 4 5 6 4 5 3 4 4 5 5 5 3 3 2 2 7 5 7 7 14 18
6 7 8 8 9 9 10 10 10 11 11 12 12 12 13 11 3 7 2 4 5 6 3 3 7 5 5 5 4 3 3 4 8 7 7 5 4 4 4 8 8 10 16 16 17
5 7 7 9 9 10 9 10 11 12 13 14 13 12 12 11 4 4 5 5 4 3 3 6 6 9 11 7 6 4 3 5 4 9 8 2 5 4 5 6 8 15 16 14 16
6 6 7 6 8 9 9 9 11 12 13 14 15 13 14 6 7 1 4 4 4 4 3 2 3 9 9 14 9 4 4 3 4 4 4 4 5 3 3 5 6 13 18 13 13
5 6 7 8 9 10 9 9 9 10 12 14 15 14 10 8 7 3 3 1 3 4 8 4 4 11 18 11 13 13 8 6 5 2 2 4 4 4 3 9 7 18 16 14 11
4 5 6 7 8 10 8 9 10 12 11 13 15 16 10 14 4 4 2 1 0 5 6 7 4 2 9 15 18 12 9 8 7 6 2 3 4 0 6 5 9 11 13 11 10
7 6 6 7 6 7 9 9 10 11 14 12 13 11 14 12 3 1 4 0 2 2 6 5 2 3 2 4 6 11 11 12 12 8 3 1 5 7 7 5 10 9 10 10 9
9 6 6 6 6 7 9 9 10 12 13 14 10 9 9 3 3 2 6 3 3 5 4 5 1 4 3 2 4 5 1 10 10 9 5 3 5 9 7 6 8 10 10 10 8
8 6 6 6 6 8 11 10 11 13 13 13 6 8 11 4 6 8 3 4 4 4 4 4 2 4 6 4 5 7 9 7 2 4 6 7 5 5 7 5 4 9 11 9 10
9 8 8 6 6 8 8 10 11 10 9 9 6 5 8 7 4 2 5 4 6 7 2 5 5 3 6 8 9 14 18 5 8 2 9 10 10 9 8 4 3 6 10 9 9
9 9 8 5 5 6 6 7 5 4 7 7 1 11 7 3 3 7 8 4 5 5 7 6 6 8 16 17 7 7 10 7 3 5 4 13 13 15 8 5 4 5 9 10 8
11 8 5 2 3 2 4 5 5 2 8 11 9 10 10 7 5 7 4 5 7 9 9 3 10 10 1 8 6 9 15 7 5 5 4 11 15 11 10 6 8 5 7 11 8
10 6 5 3 3 2 5 5 3 7 5 4 9 5 4 7 6 6 10 5 7 12 10 5 7 1 8 8 9 6 10 10 7 6 1 2 8 12 10 5 5 5 5 8 15
9 7 6 6 2 2 1 7 4 4 4 4 5 2 3 4 5 2 6 5 4 6 8 8 5 7 7 5 0 7 9 9 11 10 4 5 3 13 15 10 8 7 3 11 15
9 8 8 5 3 2 5 3 3 2 4 3 1 2 4 6 5 5 2 4 6 4 5 1 8 4 9 4 2 2 8 7 6 4 2 5 2 7 18 17 10 8 9 12 13
9 9 7 3 2 4 3 4 2 2 5 4 4 3 3 7 5 1 4 1 1 4 2 1 0 4 1 8 4 4 10 11 6 3 3 6 6 4 3 6 13 10 10 13 13
12 9 1 3 2 5 4 2 1 2 2 5 5 6 6 5 5 5 6 6 4 3 4 5 4 2 3 8 10 7 5 2 3 2 3 1 6 7 5 8 14 15 12 12 13
12 6 4 4 4 3 1 3 2 0 3 3 2 9 4 2 5 3 6 6 1 1 5 5 3 6 6 1 5 11 6 2 2 3 3 4 6 3 4 8 15 13 13 12 12
10 3 2 4 6 3 4 1 3 4 2 5 2 2 1 5 2 4 1 3 6 6 3 5 4 5 8 5 3 3 4 1 4 2 3 4 2 2 7 11 13 15 13 13 13
2 3 3 6 6 1 3 3 2 2 2 2 3 1 2 2 3 2 1 4 2 11 6 3 4 4 2 0 4 2 8 4 3 4 4 4 4 4 7 11 11 12 13 14 13
2 2 2 3 3 4 1 3 3 3 3 3 3 4 3 3 1 2 3 2 4 3 10 6 2 2 2 2 3 4 3 4 2 1 3 4 3 4 6 14 13 12 13 15 14
1 2 2 3 2 2 0 2 4 1 2 2 3 5 1 3 2 3 5 3 6 7 4 1 1 4 2 2 4 3 1 5 3 3 2 3 3 6 5 13 14 13 13 13 12
2 2 2 3 1 1 1 3 2 2 2 2 3 3 3 2 4 5 3 1 3 5 4 4 2 3 1 1 3 2 2 3 3 3 4 4 2 2 3 11 13 15 14 12 12
1 1 3 3 1 2 1 2 2 3 3 1 3 3 1 4 5 4 3 2 3 4 1 0 1 2 1 3 6 6 9 9 4 3 3 4 2 4 6 10 13 15 15 14 11
3 1 0 1 2 3 2 2 2 2 2 2 3 5 4 3 2 4 3 2 1 3 1 2 3 3 4 3 2 4 10 14 14 11 7 5 6 5 12 13 16 17 16 14 12
3 3 2 1 3 3 3 3 3 1 1 3 3 4 6 3 3 4 4 3 2 3 1 2 2 2 1 2 1 2 8 12 11 14 12 14 11 3 7 7 12 15 17 16 15
1 2 1 3 2 1 3 2 3 6 2 2 2 4 0 2 1 2 3 6 5 2 3 4 2 1 3 4 2 4 10 13 11 7 12 10 11 5 4 9 16 17 18 17 15
Wind_Direction
338 346 344 349 349 348 352 355 349 346 339 331 338 340 344 346 322 265 257 8 332 343 317 297 270 259 245 257 238 309 269 191 238 169 109 164 175 48 40 116 53 46 46 107 139
309 325 335 337 341 342 343 344 345 339 334 330 329 336 334 342 300 258 352 355 341 348 338 326 217 223 238 226 243 226 270 22 30 16 80 106 315 118 189 123 123 94 88 114 143
309 296 316 325 326 334 336 340 338 336 331 328 324 328 327 319 278 216 30 357 342 340 338 346 302 247 238 231 211 210 244 131 88 34 351 357 89 332 270 169 129 152 136 139 154
287 295 286 312 322 317 326 331 333 331 329 324 322 323 318 277 233 114 26 337 321 265 205 214 225 208 213 220 209 262 265 327 70 75 308 19 320 215 309 107 45 115 136 147 172
295 291 266 294 302 315 310 318 322 326 324 323 319 319 311 229 243 130 351 24 275 219 213 201 225 206 218 214 217 213 238 202 100 176 326 349 261 2 302 99 80 110 128 157 177
268 280 269 293 296 305 302 313 314 318 317 317 316 318 262 254 97 137 77 271 59 237 236 193 221 312 227 234 211 197 215 246 171 207 256 335 334 271 101 109 114 131 143 165 186
242 253 269 288 291 301 297 305 303 310 311 310 312 303 276 252 140 75 147 169 129 20 287 249 216 210 182 242 293 218 199 229 242 189 226 10 267 225 137 145 139 157 145 161 179
230 237 256 279 282 303 302 295 292 301 304 301 301 294 263 271 293 219 166 151 218 123 286 321 1 209 228 98 360 156 334 202 205 196 167 141 278 190 137 162 175 162 143 152 172
216 215 246 270 275 299 303 293 285 289 291 288 266 226 268 128 224 220 213 243 178 122 256 285 216 192 145 171 173 184 188 190 181 239 184 170 238 231 144 157 231 152 141 155 165
213 208 237 255 276 303 295 279 279 298 258 252 248 283 251 262 147 249 211 228 218 125 209 189 228 215 155 194 194 188 201 168 205 180 249 187 229 271 157 143 281 164 141 150 157
193 206 224 249 280 294 295 261 256 212 241 251 331 266 298 326 224 213 214 225 224 162 221 170 235 228 186 179 186 164 196 202 128 102 55 253 211 239 248 181 198 270 142 145 155
177 188 209 234 266 293 283 281 55 338 299 231 257 285 283 290 262 203 159 209 208 204 196 274 232 286 223 223 151 175 171 181 34 51 136 275 237 229 237 230 174 257 164 144 136
155 164 161 176 157 237 264 329 8 338 265 211 232 280 301 315 287 196 180 205 237 226 208 236 320 272 202 213 206 183 176 160 136 136 173 275 263 252 238 253 123 66 10 141 120
147 154 142 161 189 15 290 24 325 311 285 199 215 217 223 260 267 113 226 258 235 257 221 214 209 292 324 122 263 157 111 107 126 155 204 180 251 213 222 210 148 124 293 105 102
146 151 159 199 343 258 19 325 285 257 295 2 131 20 296 242 336 178 342 224 261 238 126 191 164 205 213 63 70 14 131 137 136 107 68 169 246 287 191 206 153 137 108 97 96
137 136 142 237 236 23 335 301 263 293 258 332 317 221 225 226 263 329 202 247 25 307 120 105 295 146 105 154 131 117 74 59 54 75 193 180 191 263 177 172 135 102 91 99 98
117 100 251 3 31 322 338 264 354 237 245 355 336 326 239 214 251 33 204 189 192 145 179 199 183 103 116 123 170 166 114 90 125 154 190 50 174 241 54 69 145 135 121 110 108
121 135 62 54 348 342 309 47 280 237 22 356 302 315 268 237 254 64 317 204 209 345 146 178 201 163 161 129 181 187 151 103 172 169 139 347 213 230 63 74 109 114 119 112 112
156 158 86 9 337 357 60 156 309 8 298 330 277 296 265 329 322 123 260 302 185 200 255 166 151 40 23 49 332 148 143 68 98 125 104 197 268 171 113 105 116 127 136 128 124
179 158 59 326 316 61 90 260 307 269 313 278 294 221 242 204 263 161 163 277 272 177 227 329 119 5 75 161 39 29 147 87 25 145 214 192 197 218 176 147 137 146 141 134 132
249 47 27 335 316 56 19 5 295 13 313 305 316 303 316 356 307 259 338 301 294 200 146 316 346 82 147 243 153 129 147 73 72 117 203 134 238 351 201 162 156 157 148 144 143
46 60 24 291 20 62 56 314 317 317 29 295 285 248 292 345 249 273 214 273 358 321 130 232 351 126 71 344 14 354 146 165 161 188 262 107 270 335 1 150 152 155 150 140 136
131 111 128 281 253 126 332 286 261 261 217 290 266 320 37 289 269 223 274 24 28 326 147 165 294 105 74 4 40 238 215 329 34 61 201 118 258 316 16 140 155 145 146 145 140
149 50 349 18 234 177 251 265 265 227 281 119 301 280 256 220 222 312 242 75 28 352 69 78 194 357 70 30 115 176 202 202 187 170 147 213 176 187 189 162 159 155 157 152 155
0 156 319 242 252 206 226 171 225 246 220 250 241 253 322 289 196 208 280 107 15 325 332 62 215 212 112 2 178 194 198 191 208 216 204 184 230 203 189 192 175 160 153 154 164
141 154 185 181 270 188 182 217 207 159 240 168 260 337 282 264 11 4 338 22 186 190 271 105 295 193 50 44 249 308 193 208 218 225 258 272 263 234 165 162 145 163 163 174 179
85 86 287 141 204 173 201 194 239 144 179 9 316 313 12 20 291 299 293 293 298 239 201 164 159 120 179 348 326 337 214 195 207 214 217 231 241 161 167 182 177 173 174 182 182